Call: 781-595-2000Contact Us
Lynn Police Dept - 300 Washington Street Lynn, Massachusetts 01902
  • Tel: 781-595-2000
  • Email: web1@lynnpolice.org

June 3, 2021

on June 23, 2021 in June 2021, Police Call Logs
Date/Time IncNum MC IncType Location
6/3/2021 0:02 21035321 1 NOISE 30 UNION CT
6/3/2021 0:05 21035322 1 NOISE 63 WARREN ST
6/3/2021 0:09 21035323 1 NOISE 1 MALL ST
6/3/2021 0:22 21035324 1 ALARM KELLY HONDA / 540 LYNNWAY
6/3/2021 0:23 21035325 1 LOCKOUT 104 NEWHALL ST #44
6/3/2021 0:54 21035326 1 OTHER MV WENDYS / 116 BOSTON ST
6/3/2021 1:10 21035328 1 NOISE NEWCASTLE ST
6/3/2021 1:31 21035332 1 CK AREA BARRY PARK / 20 WATERFORD ST
6/3/2021 1:31 21035334 1 CK AREA PENNYBROOK RD
6/3/2021 1:33 21035336 1 NOISE NORTH SHORE CHRISTIAN SCHOOL / 26 URBAN ST
6/3/2021 1:34 21035337 1 WELL BEING CHK STATE ST
6/3/2021 1:54 21035341 1 CK AREA AUBURN ST & BACHELLER ST
6/3/2021 1:58 21035343 1 ALARM 540 LYNNWAY
6/3/2021 2:08 21035345 1 CK AREA HIGH ROCK TOWER / CIRCUIT AVE
6/3/2021 2:07 21035346 1 CK AREA CURWIN CIR
6/3/2021 2:09 21035347 1 CK AREA 147 WASHINGTON ST
6/3/2021 2:14 21035349 1 CK PER KELLY HONDA / 540 LYNNWAY
6/3/2021 2:20 21035352 1 CK AREA BARRY PARK / 20 WATERFORD ST
6/3/2021 2:49 21035356 1 ALARM 551 SUMMER ST
6/3/2021 3:12 21035357 1 ALARM 112 UNION ST
6/3/2021 3:17 21035358 1 MV STOP ESSEX ST
6/3/2021 3:24 21035360 1 MEDICAL 19 MARKET SQ
6/3/2021 3:56 21035361 1 OTHER SV 10 FARRAR ST #408
6/3/2021 4:00 21035362 1 911 HANG 36 WALDEN ST #1
6/3/2021 5:18 21035363 1 ALARM SULLIVAN TIRE / 637 LYNNWAY
6/3/2021 5:25 21035364 1 911 HANG 330 LYNNWAY
6/3/2021 5:31 21035365 1 B&E MV NOW 40 SHERIDAN ST
6/3/2021 6:03 21035368 1 OTHER D MARKET BASKET / 40 FEDERAL ST
6/3/2021 6:10 21035369 1 MEDICAL 30 HIGH ST
6/3/2021 6:44 21035370 1 911 HANG 555 LYNNWAY
6/3/2021 7:05 21035371 1 ALARM 15 JOYCE ST
6/3/2021 7:08 21035372 1 SERVE PA 574 CHESTNUT ST #12
6/3/2021 7:18 21035373 1 TRESPASS 81 WHITING ST
6/3/2021 7:17 21035374 1 SERVE PA 281 LYNNFIELD ST
6/3/2021 7:24 21035375 1 MVA ACC 800 LYNNFIELD ST
6/3/2021 7:29 21035376 1 SERVE PA 350 BOSTON ST #3
6/3/2021 7:33 21035377 1 CK AREA MBTA PARKING GARAGE / 186 MARKET ST
6/3/2021 7:38 21035379 1 SERVE PA 68 NEW PARK ST
6/3/2021 7:41 21035380 1 INVEST 26 TEMPLE PL
6/3/2021 7:43 21035381 1 SERVE PA 32 ARBOR ST
6/3/2021 7:49 21035382 1 SUSPICIS 82 JUDGE RD
6/3/2021 7:54 21035383 1 TRESPASS MARKET BASKET / 40 FEDERAL ST
6/3/2021 7:55 21035384 1 MV STOP 112 HIGH ROCK ST
6/3/2021 7:59 21035385 1 PR TRANS 300 WASHINGTON ST
6/3/2021 8:04 21035386 1 911 HANG 18 BOND ST #809
6/3/2021 8:21 21035387 1 ASS AGEN 51 LIBERTY ST
6/3/2021 8:31 21035388 1 MEDICAL 156 VERONA ST
6/3/2021 8:39 21035390 1 ALARM 161 ESSEX ST
6/3/2021 8:45 21035391 1 MEDICAL 75 WESTERN AVE
6/3/2021 8:54 21035392 1 911 HANG 280 UNION ST FL UNIT 1
6/3/2021 9:09 21035396 1 MEDICAL 8 MENLO TER
6/3/2021 9:09 21035397 1 MEDICAL 67 SILSBEE ST #OUTSIDE
6/3/2021 9:41 21035399 1 CK PER 35 WASHINGTON ST
6/3/2021 10:00 21035400 1 WELL BEING CHK 837 SUMMER ST
6/3/2021 10:03 21035402 1 LOST ART 149 CURWIN CIR
6/3/2021 10:08 21035403 1 PANHANDL MCDONALDS / 60 BOSTON ST
6/3/2021 10:18 21035405 1 911 HANG 36.5 LINDEN ST
6/3/2021 10:20 21035407 1 MVA H&R CENTRAL AVE & MUNROE ST
6/3/2021 10:30 21035408 1 MEDICAL 480 LYNNFIELD ST FL 2
6/3/2021 10:33 21035409 1 INVEST 40 SHERIDAN ST
6/3/2021 10:32 21035410 1 911 HANG 480 LYNNFIELD ST FL 2
6/3/2021 10:21 21035411 1 ESCORT WATER & SEWER COMMISSION / 400 PARKLAND AVE
6/3/2021 10:43 21035412 1 MEDICAL 87 BEACON HILL AVE #3
6/3/2021 10:51 21035414 1 OTHER SV 176 WASHINGTON ST
6/3/2021 10:58 21035415 1 ANIMALS: ALL 5 MURPHY AVE
6/3/2021 11:01 21035417 1 DISTURB 224 WASHINGTON ST
6/3/2021 11:19 21035418 1 SERVE PA 80 LOWELL ST
6/3/2021 11:09 21035419 1 ASSIST U 4 FLINT ST
6/3/2021 11:16 21035421 1 MEDICAL 36 WILLIAM ST
6/3/2021 11:17 21035422 1 MEDICAL 540 CHESTNUT ST #1
6/3/2021 11:18 21035423 1 MEDICAL 75 ROCKAWAY ST
6/3/2021 11:26 21035424 1 ASS AGEN 409 BROADWAY
6/3/2021 11:46 21035426 1 SERVE PA 26 LINCOLN ST
6/3/2021 11:52 21035427 1 NOISE 69 LYNNWAY #43
6/3/2021 11:54 21035428 1 SERVE PA 574 CHESTNUT ST #1R
6/3/2021 11:56 21035429 1 SERVE PA 32 ARBOR ST
6/3/2021 11:57 21035430 1 MEDICAL 15 FORTESQUE TER #3
6/3/2021 12:05 21035431 1 SERVE PA 281 LYNNFIELD ST
6/3/2021 12:07 21035432 1 CK AREA CURWIN CIR
6/3/2021 12:17 21035433 1 SERVE PA 98 NAHANT ST #1A
6/3/2021 12:16 21035434 1 OTHER SV 168 TRACY AVE
6/3/2021 12:19 21035435 1 MV PROB PLEASANT ST & STATE ST
6/3/2021 12:20 21035436 1 SERVE PA 181/183 N COMMON ST
6/3/2021 12:24 21035437 1 MEDICAL ANDREW ST & MARKET ST
6/3/2021 12:42 21035439 1 MVA ACC CENTRAL SQ & UNION ST
6/3/2021 12:52 21035441 1 DISTURB 65 BOSTON ST
6/3/2021 13:05 21035443 1 OTHER MV DREWICZ ELEMENTARY / 34 HOOD ST
6/3/2021 13:17 21035444 1 MVA ACC 79 W NEPTUNE ST
6/3/2021 13:45 21035447 1 PINK PPR 263 ESSEX ST #301
6/3/2021 13:40 21035448 1 FIGHT 50 GOODRIDGE ST
6/3/2021 13:41 21035449 1 DISTURB 307 UNION
6/3/2021 13:53 21035451 1 MEDICAL A L PRIME ENERGY / 423 BOSTON ST
6/3/2021 14:01 21035452 1 MVA ACC 50 JACKSON ST
6/3/2021 14:02 21035453 1 MV PROB PRICERITE OF LYNN / 395 LYNNWAY
6/3/2021 14:04 21035454 1 HAZ CONDITION ALBION ST & WESTERN AVE
6/3/2021 14:29 21035457 1 MV PROB FAIRVIEW AVE
6/3/2021 14:36 21035458 1 TRAFF ENF POST CLAIRMONT ST & GRACIE RD
6/3/2021 14:18 21035459 1 LARCENY 75 SILSBEE ST #B14
6/3/2021 14:39 21035460 1 MEDICAL 130 NEPTUNE BLVD #1114
6/3/2021 14:57 21035462 1 INVEST BAKER ST & FRANKLIN ST
6/3/2021 15:13 21035464 1 INVEST S COMMONS & HUSS
6/3/2021 15:13 21035466 1 OTHER PR HUSS CT & S COMMON ST
6/3/2021 15:21 21035467 1 INVEST BROAD ST
6/3/2021 15:21 21035468 1 MVA W/PI HONEY DEW DONUTS / 1067 WESTERN AVE
6/3/2021 15:26 21035469 1 MVA W/PI HONEY DEW DONUTS / 1067 WESTERN AVE
6/3/2021 15:33 21035471 1 SUICIDAL PERSON 360 WASHINGTON ST #OUTSIDE
6/3/2021 15:38 21035472 1 MEDICAL 170 S COMMON ST #906
6/3/2021 15:43 21035473 1 LARCENY 200 S COMMON ST
6/3/2021 15:49 21035474 1 LOST ART 51 WILLOW ST #291
6/3/2021 16:00 21035475 1 MEDICAL 38 COMMERCIAL ST
6/3/2021 16:00 21035476 1 911 HANG 80 LEWIS ST
6/3/2021 16:13 21035477 1 TRESPASS 189 N COMMON ST
6/3/2021 16:18 21035478 1 OTHER CR 39 TIMSON ST
6/3/2021 16:22 21035479 1 WELL BEING CHK 119 LEWIS ST #18
6/3/2021 16:30 21035480 1 MV PARK 631 EASTERN AVE
6/3/2021 16:30 21035481 1 911 HANG 200 S COMMON ST
6/3/2021 16:41 21035482 1 WELL BEING CHK 1 ATLANTIC ST/OUTFRT
6/3/2021 16:45 21035483 1 SUICIDAL PERSON 100 WILLOW ST
6/3/2021 16:52 21035484 1 TRESPASS 185 LEWIS ST
6/3/2021 16:53 21035485 1 NOTIFY 270 UNION ST #306
6/3/2021 16:58 21035486 1 911 HANG 274 ESSEX ST
6/3/2021 17:09 21035487 1 DISTURB SPEEDWAY GAS STATION / 120 LIBERTY ST
6/3/2021 17:31 21035492 1 ALARM 77 STERLING ST
6/3/2021 17:48 21035495 1 MEDICAL 20 NEPTUNE BLVD
6/3/2021 17:49 21035496 1 ALARM BLT / 176 BROAD ST
6/3/2021 17:51 21035497 1 SERVE PA 52 BAKER ST #1
6/3/2021 17:55 21035498 1 SERVE PA 17 WILLIAMS AVE #1
6/3/2021 18:04 21035499 1 SERVE PA 32 ARBOR ST
6/3/2021 18:21 21035501 1 SERVE PA 32 BROAD ST #2
6/3/2021 18:24 21035502 1 DISTURB 154 LYNNWAY #GARAGE
6/3/2021 18:24 21035503 1 MEDCHILD 162 WASHINGTON ST #3
6/3/2021 18:26 21035504 1 ALARM 49 LAIGHTON ST #2
6/3/2021 18:27 21035505 1 MEETWITH 50 GOODRIDGE ST
6/3/2021 18:28 21035506 1 MVA ACC BROAD ST & NAHANT ST
6/3/2021 18:29 21035507 1 SERVE PA 350 BOSTON ST #3
6/3/2021 18:35 21035508 1 SERVE PA 418 WASHINGTON ST
6/3/2021 18:41 21035509 1 SERVE PA 114 ONTARIO ST #1
6/3/2021 18:46 21035511 1 VIO HARSS ORD 26 WILLIAMS AVE #1
6/3/2021 18:48 21035512 1 MEDICAL 185 N COMMON ST #ACROSS FROM FL IN PARK
6/3/2021 18:50 21035513 1 WELL BEING CHK HIGHLAND VARIETY / 96 ADAMS ST
6/3/2021 18:58 21035514 1 MVA ACC 16 UNION ST
6/3/2021 19:05 21035515 1 MVA ACC 267 LYNN SHORE DR
6/3/2021 19:06 21035516 1 MEDCHILD GREAT WOODS RD FL W SECTOR
6/3/2021 19:09 21035517 1 ERR OPERATOR DUNKIN DONUTS / 577 WALNUT ST
6/3/2021 19:09 21035518 1 MEDICAL 93 LOCKWOOD RD
6/3/2021 19:16 21035519 1 UNK PROB 7 WILLOW ST
6/3/2021 19:18 21035520 1 WELL BEING CHK 23 MALL ST #3
6/3/2021 19:22 21035522 1 FIRE ALL 56 WILLIAMS AVE
6/3/2021 19:27 21035523 1 MVA ACC 134 CHESTNUT ST
6/3/2021 19:33 21035524 1 MEDICAL 99 N COMMON ST #301
6/3/2021 19:37 21035525 1 OVERDOSE WENDYS / 116 BOSTON ST
6/3/2021 19:44 21035526 1 911 HANG 99 FRANKLIN ST #9
6/3/2021 19:51 21035527 1 MV STOP 76 FLINT ST
6/3/2021 19:51 21035528 1 SERVE PA 498 ESSEX ST
6/3/2021 19:54 21035529 1 MEDICAL 50 ASTOR ST #1
6/3/2021 19:53 21035530 1 MEDICAL 7 DARTMOUTH ST
6/3/2021 19:53 21035531 1 WELL BEING CHK 55 BROAD ST #4
6/3/2021 20:02 21035532 1 A&B 15 MURPHY AVE FL 3
6/3/2021 20:01 21035533 1 DISTURB 95 PLEASANT ST
6/3/2021 20:03 21035534 1 SERVE PA 51 ROCK AVE #2
6/3/2021 20:11 21035535 1 911 HANG 61 SOUTH ST
6/3/2021 20:10 21035536 1 JUV PROB 78 MALL ST
6/3/2021 20:20 21035538 1 MEDICAL 23 MALL ST #3
6/3/2021 20:21 21035539 1 MV PROB MICHIGAN AVE
6/3/2021 20:35 21035541 1 911 HANG 18 SARGENTS CT
6/3/2021 20:35 21035542 1 MEDICAL 18 SARGENTS CT
6/3/2021 20:34 21035543 1 MEDCHILD 137 BROAD ST #505
6/3/2021 20:48 21035544 1 911 HANG 197 WASHINGTON ST
6/3/2021 21:00 21035547 1 WELL BEING CHK 64 BAKER ST #2
6/3/2021 21:01 21035548 1 ALARM GREG HOUSE PRE-SCHOOL / 11 WEBSTER ST
6/3/2021 21:00 21035549 1 SUICIDAL PERSON COMMUNITY CREDIT UNION OF LYNN / 1 ANDREW ST #
6/3/2021 21:40 21035551 1 OTHER SV SHELTER / 360 WASHINGTON ST
6/3/2021 22:16 21035554 1 DRUNK 477 SUMMER ST
6/3/2021 22:16 21035555 1 MISS PER 103 JOHNSON ST
6/3/2021 22:17 21035556 1 MVA H&R LYNN SHORE DR & PRESCOTT RD
6/3/2021 22:40 21035557 1 MEDICAL 9 GREENWOOD AVE
6/3/2021 22:47 21035559 1 DISTURB JOHNSON ST
6/3/2021 22:49 21035561 1 ALARM HERTZ RENTAL CARS / 354 LYNNWAY
6/3/2021 22:49 21035562 1 LARCENY 7-11 / 3 LYNNFIELD ST
6/3/2021 23:05 21035565 1 NOISE 80 VERONA ST
6/3/2021 23:28 21035569 1 TRESPASS EASTERN BANK OFFICE / 195 MARKET ST
6/3/2021 23:30 21035570 1 DISTURB 170 S COMMON ST #906
6/3/2021 23:36 21035571 1 NOISE 80 VERONA ST

Police Call Logs

Top